Starlink 30807

operational
NORAD ID: 58192 Int'l Des: 2023-167 Owner: SPXS Country: US Constellation: starlink
LEOCIRCULAR

About Starlink 30807

Description loading...

Live Position

Loading 3D Globe...

Upcoming Passes

Altitude History

Altitude vs Time

uPlot chart will show altitude changes over time

Two-Line Element Set

1 58192U 23167T 25258.05372475 -.00000725 00000-0 -38608-4 0 9994
2 58192 43.0055 20.4058 0001426 272.4945 87.5734 15.02531707104537
Epoch: Sep 15, 2025 • Age: 13 hours

Current Status

Altitude 565.1 km
Velocity 7.58 km/s
Sub-Earth Point -26.55°S, 142.49°E
Launch Date Oct 30, 2023
Age 1.8 years
Type internet

Technical Details

Classification Payload
Mass 730.00 kg
Dry Mass 700.00 kg
Total Mass 730.00 kg
Length 0.30 m
Diameter 4.10 m
Span 29.00 m
Shape Box + pan
Manufacturer SPXS
Bus Type Starlink V2M
Phase Status In Orbit
Owner/State SPXS/US

Large Constellations

Loading constellations...